Showing default

ALMUNTHER, 63240

Orbit data source: Space-Track

ALMUNTHER, 63240 is a Bahraini payload satellite in SSO that was launched on Sat, 15 Mar 2025 UTC via an FALCON 9 launch vehicle from the Air Force Western Test Range (AFWTR). Payload-class satellites include a variety of spacecraft equipped with specific instruments for various scientific and technological missions. These include communications satellites like Starlink; space stations such as the ISS; scientific satellites like the Hubble; Earth observation satellites from companies like Planet Labs, Umbra, and HawkEye 360; GPS; miniature CubeSats for education and research; and military/defense satellites.

Loading next visibility...
Identifier
63240, 2025-052AG
Orbit
SSO
Last TLE update
8 hours ago
Origin
Manufacturer
AMAN/BNSSA
Mission
Operational Civil Technology
Bus & Motor
CUBESAT 3U?, Unknown motor
Mass
3 kg wet, 3 kg dry
Launch date (UTC)
2025-03-15 (2 months ago)
Launch vehicle
FALCON 9
Launch site
Air Force Western Test Range (AFWTR)
Object type
Payload
Rocket body
Debris
Shape & HBR
Box, 0.3 m
Radar Cross Section
0.035 m², Small (<0.1 m²)

Expand to show TLE details & history

TLE from 8 hours ago
0 ALMUNTHER
1 63240U 25052AG  25133.21726180  .00009362  00000-0  45994-3 0  9994
2 63240  97.4346  27.4630 0010488 113.3331 246.9007 15.18223249  9080
Epoch: 2025-05-13T05:12Z
Definitive object data (Epoch: 2025-05-13T05:12:51.419Z)
Latitude
-0.0001°
Longitude
78.0296°
Altitude
517.139 km
Speed
7.603 km/s
True Right ascension
01h 49m 51s
True Declination
0° 00' 00"
Sunlit
Object was in daylight at TLE epoch
Visualization TLE readout
Latitude
72.78214°
Longitude
-76.87076°
Altitude
516.543 km
Speed
7.616 km/s
Apparent Right ascension
11h 26m 37s
Apparent Declination
24° 09' 50"
Sunlit
Object is in daylight
Visualization observer readout
Local Sidereal Time
22:00:58
Azimuth
338.805° N
Elevation
-22.881°
Doppler factor
1
Orbital elements
Apogee altitude
515.402 km
Perigee altitude
500.957 km
Semi-major axis
6,886.317 km
Eccentricity
0.0010488
Inclination
97.4346°
RAAN
27.463°
Arg. of periapsis
113.3331°
True anomaly
246.79021°
Mean anomaly
246.9007°
Eccentric anomaly
246.84545°
Mean motion
3.79807 °/min
BSTAR
0.00045994
Orbital period
94.79 mins
Loading maneuver chart data...
Loading SW <> Apogee altitude chart data...
Loading historical data...
Loading historical data...
Loading historical data...
Loading historical data...
Loading historical data...
Loading historical data...
Loading historical data...

ALMUNTHER Visibility forecast

Observer location: undefined°, undefined°

Span
Click to sort rows by Start time (UTC) header in descending order
Start Az.
Max El. time (UTC)
Max El. Az.
Max El.
End time (UTC)
End Az.
6 mins2025-05-13 16:25:11.570Z134.918° SE2025-05-13 16:28:11.570Z73.839° E28.609°2025-05-13 16:31:11.570Z10.373° NNE
5 mins2025-05-14 05:31:11.570Z30.44° NE2025-05-14 05:33:11.570Z87.037° E37.89°2025-05-14 05:36:11.570Z173.676° S
|